Location: San Gennaro Vesuviano
(40.8833°N, 14.5333°E)
Time: 11:24:36
(UTC+00:00)

Cosmos 1825 - Pass Details

Date: 22 April 2021
Orbit: 502 x 505 km, 82.5° (Epoch: 10 May)

Event Time Altitude Azimuth Distance (km) Brightness Sun altitude
Rises 18:50:08 0° 350° (N) 2,614 6.4 -11.5°
Reaches altitude 10° 18:52:16 10° 349° (N) 1,725 5.4 -11.8°
Maximum altitude 18:56:02 75° 264° (W) 527 2.3 -12.5°
Drops below altitude 10° 18:59:47 10° 179° (S) 1,712 4.5 -13.1°
Enters shadow 19:00:44 - 178° (S) 2,110 5.0 -13.2°
